Time,TemperatureF,DewpointF,PressureIn,WindDirection,WindDirectionDegrees,WindSpeedMPH,WindSpeedGustMPH,Humidity,HourlyPrecipIn,Conditions,Clouds,dailyrainin,SoftwareType,DateUTC
2013-04-11 00:05:00,68.9,55.4,29.91,SSE,164,0.0,0.0,59,0.00,,,0.00,WUHU216WMR968SP,2013-04-11 04:05:00,
2013-04-11 00:10:00,69.3,55.4,29.91,SE,138,0.0,4.6,59,0.00,,,0.00,WUHU216WMR968SP,2013-04-11 04:10:00,
2013-04-11 00:15:00,70.2,53.6,29.91,South,175,4.1,5.4,58,0.00,,,0.00,WUHU216WMR968SP,2013-04-11 04:15:00,
2013-04-11 00:20:00,71.1,55.4,29.91,WSW,249,3.3,5.4,57,0.00,,,0.00,WUHU216WMR968SP,2013-04-11 04:20:00,
2013-04-11 00:25:00,71.4,55.4,29.91,SE,129,0.0,5.4,56,0.00,,,0.00,WUHU216WMR968SP,2013-04-11 04:25:00,
2013-04-11 00:30:00,71.6,55.4,29.91,SSW,197,0.0,5.4,55,0.00,,,0.00,WUHU216WMR968SP,2013-04-11 04:30:00,
2013-04-11 00:35:00,71.8,55.4,29.91,SSE,153,0.0,8.1,55,0.00,,,0.00,WUHU216WMR968SP,2013-04-11 04:35:00,
2013-04-11 00:40:00,72.0,55.4,29.91,South,181,0.0,8.1,55,0.00,,,0.00,WUHU216WMR968SP,2013-04-11 04:40:00,
2013-04-11 00:45:00,72.0,53.6,29.91,South,182,0.0,8.7,54,0.00,,,0.00,WUHU216WMR968SP,2013-04-11 04:45:00,
2013-04-11 00:50:00,72.0,53.6,29.91,SSE,162,0.0,8.7,54,0.00,,,0.00,WUHU216WMR968SP,2013-04-11 04:50:00,
2013-04-11 00:55:00,72.0,53.6,29.91,SSE,162,0.0,4.6,54,0.00,,,0.00,WUHU216WMR968SP,2013-04-11 04:55:00,
2013-04-11 01:00:00,72.0,53.6,29.91,SSW,195,0.0,6.0,54,0.00,,,0.00,WUHU216WMR968SP,2013-04-11 05:00:00,
2013-04-11 01:05:00,72.0,53.6,29.91,SW,236,0.0,6.0,54,0.00,,,0.00,WUHU216WMR968SP,2013-04-11 05:05:00,
2013-04-11 01:10:00,71.6,53.6,29.91,WSW,241,0.0,8.7,54,0.00,,,0.00,WUHU216WMR968SP,2013-04-11 05:10:00,
2013-04-11 01:15:00,72.0,53.6,29.91,SSW,210,4.1,8.7,54,0.00,,,0.00,WUHU216WMR968SP,2013-04-11 05:15:00,
2013-04-11 01:20:00,72.1,53.6,29.91,WNW,282,4.1,8.1,54,0.00,,,0.00,WUHU216WMR968SP,2013-04-11 05:20:00,
2013-04-11 01:25:00,72.1,53.6,29.91,SSW,204,0.0,6.0,54,0.00,,,0.00,WUHU216WMR968SP,2013-04-11 05:25:00,
2013-04-11 01:31:00,72.1,53.6,29.91,WSW,238,0.0,4.6,54,0.00,,,0.00,WUHU216WMR968SP,2013-04-11 05:31:00,
2013-04-11 01:36:00,72.3,53.6,29.91,NW,312,4.6,8.7,53,0.00,,,0.00,WUHU216WMR968SP,2013-04-11 05:36:00,
2013-04-11 01:41:00,72.3,53.6,29.91,SSW,203,0.0,8.7,53,0.00,,,0.00,WUHU216WMR968SP,2013-04-11 05:41:00,
2013-04-11 01:46:00,72.1,53.6,29.91,South,190,0.0,7.4,53,0.00,,,0.00,WUHU216WMR968SP,2013-04-11 05:46:00,
2013-04-11 01:51:00,72.3,53.6,29.91,South,180,4.1,7.4,53,0.00,,,0.00,WUHU216WMR968SP,2013-04-11 05:51:00,
2013-04-11 01:56:00,72.1,53.6,29.91,SSW,211,3.3,8.1,53,0.00,,,0.00,WUHU216WMR968SP,2013-04-11 05:56:00,
2013-04-11 02:01:00,72.0,53.6,29.91,SW,225,0.0,8.1,53,0.00,,,0.00,WUHU216WMR968SP,2013-04-11 06:01:00,
2013-04-11 02:06:00,72.0,53.6,29.91,SSW,210,6.8,8.1,53,0.00,,,0.00,WUHU216WMR968SP,2013-04-11 06:06:00,
2013-04-11 02:11:00,72.0,53.6,29.91,SW,224,6.8,8.7,53,0.00,,,0.00,WUHU216WMR968SP,2013-04-11 06:11:00,
2013-04-11 02:17:00,72.1,53.6,29.91,South,187,4.1,8.7,53,0.00,,,0.00,WUHU216WMR968SP,2013-04-11 06:17:00,
2013-04-11 02:22:00,72.3,53.6,29.91,SSW,203,4.6,8.1,53,0.00,,,0.00,WUHU216WMR968SP,2013-04-11 06:22:00,
2013-04-11 02:27:00,72.1,53.6,29.91,SSE,155,0.0,9.5,53,0.00,,,0.00,WUHU216WMR968SP,2013-04-11 06:27:00,
2013-04-11 02:32:00,72.0,53.6,29.91,SW,219,4.6,9.5,53,0.00,,,0.00,WUHU216WMR968SP,2013-04-11 06:32:00,
2013-04-11 02:37:00,72.3,53.6,29.91,SW,228,3.3,9.5,53,0.00,,,0.00,WUHU216WMR968SP,2013-04-11 06:37:00,
2013-04-11 02:42:00,72.0,53.6,29.91,SE,141,4.1,9.5,53,0.00,,,0.00,WUHU216WMR968SP,2013-04-11 06:42:00,
2013-04-11 02:47:00,71.8,53.6,29.91,WSW,244,0.0,7.4,53,0.00,,,0.00,WUHU216WMR968SP,2013-04-11 06:47:00,
2013-04-11 02:52:00,71.8,53.6,29.91,WSW,241,4.1,8.1,53,0.00,,,0.00,WUHU216WMR968SP,2013-04-11 06:52:00,
2013-04-11 02:57:00,71.4,53.6,29.91,South,179,0.0,8.1,54,0.00,,,0.00,WUHU216WMR968SP,2013-04-11 06:57:00,
2013-04-11 03:03:00,71.2,53.6,29.91,SSW,193,0.0,8.7,54,0.00,,,0.00,WUHU216WMR968SP,2013-04-11 07:03:00,
2013-04-11 03:08:00,71.2,53.6,29.91,SSW,202,0.0,8.7,54,0.00,,,0.00,WUHU216WMR968SP,2013-04-11 07:08:00,
2013-04-11 03:13:00,71.4,53.6,29.91,West,279,5.4,8.7,54,0.00,,,0.00,WUHU216WMR968SP,2013-04-11 07:13:00,
2013-04-11 03:18:00,71.2,53.6,29.91,SW,230,0.0,8.7,54,0.00,,,0.00,WUHU216WMR968SP,2013-04-11 07:18:00,
2013-04-11 03:23:00,71.4,53.6,29.91,WSW,247,3.3,8.7,54,0.00,,,0.00,WUHU216WMR968SP,2013-04-11 07:23:00,
2013-04-11 03:28:00,71.2,53.6,29.91,WSW,249,4.1,9.5,54,0.00,,,0.00,WUHU216WMR968SP,2013-04-11 07:28:00,
2013-04-11 03:33:00,71.1,53.6,29.91,WNW,301,0.0,9.5,54,0.00,,,0.00,WUHU216WMR968SP,2013-04-11 07:33:00,
2013-04-11 03:38:00,70.9,55.4,29.91,WSW,238,6.0,8.7,55,0.00,,,0.00,WUHU216WMR968SP,2013-04-11 07:38:00,
2013-04-11 03:43:00,70.7,55.4,29.91,WSW,238,0.0,8.7,55,0.00,,,0.00,WUHU216WMR968SP,2013-04-11 07:43:00,
2013-04-11 03:48:00,70.7,55.4,29.91,SSW,208,0.0,7.4,55,0.00,,,0.00,WUHU216WMR968SP,2013-04-11 07:48:00,
2013-04-11 03:53:00,70.5,53.6,29.88,SSE,167,0.0,7.4,55,0.00,,,0.00,WUHU216WMR968SP,2013-04-11 07:53:00,
2013-04-11 03:58:00,70.3,53.6,29.88,SSE,167,0.0,5.4,56,0.00,,,0.00,WUHU216WMR968SP,2013-04-11 07:58:00,
2013-04-11 04:03:00,70.0,53.6,29.88,SW,235,0.0,0.0,56,0.00,,,0.00,WUHU216WMR968SP,2013-04-11 08:03:00,
2013-04-11 04:08:00,69.6,53.6,29.88,SSW,193,4.6,8.1,57,0.00,,,0.00,WUHU216WMR968SP,2013-04-11 08:08:00,
2013-04-11 04:13:00,69.8,53.6,29.88,SSE,151,0.0,8.1,57,0.00,,,0.00,WUHU216WMR968SP,2013-04-11 08:13:00,
2013-04-11 04:18:00,69.8,53.6,29.88,South,178,3.3,7.4,57,0.00,,,0.00,WUHU216WMR968SP,2013-04-11 08:18:00,
2013-04-11 04:23:00,69.6,53.6,29.88,SSW,211,0.0,7.4,58,0.00,,,0.00,WUHU216WMR968SP,2013-04-11 08:23:00,
2013-04-11 04:28:00,69.6,53.6,29.88,SSW,192,0.0,6.0,58,0.00,,,0.00,WUHU216WMR968SP,2013-04-11 08:28:00,
2013-04-11 04:33:00,69.8,53.6,29.88,SW,216,0.0,6.0,57,0.00,,,0.00,WUHU216WMR968SP,2013-04-11 08:33:00,
2013-04-11 04:38:00,69.6,53.6,29.88,SW,214,0.0,4.6,58,0.00,,,0.00,WUHU216WMR968SP,2013-04-11 08:38:00,
2013-04-11 04:44:00,69.6,53.6,29.88,SSE,152,0.0,6.0,58,0.00,,,0.00,WUHU216WMR968SP,2013-04-11 08:44:00,
2013-04-11 04:49:00,69.4,53.6,29.88,SW,216,0.0,6.0,58,0.00,,,0.00,WUHU216WMR968SP,2013-04-11 08:49:00,
2013-04-11 04:54:00,69.4,53.6,29.88,SW,227,0.0,5.4,58,0.00,,,0.00,WUHU216WMR968SP,2013-04-11 08:54:00,
2013-04-11 04:59:00,69.4,55.4,29.88,WSW,249,4.6,8.7,59,0.00,,,0.00,WUHU216WMR968SP,2013-04-11 08:59:00,
2013-04-11 05:04:00,69.4,55.4,29.88,South,169,4.1,8.7,59,0.00,,,0.00,WUHU216WMR968SP,2013-04-11 09:04:00,
2013-04-11 05:09:00,69.3,55.4,29.88,SSW,193,3.3,6.0,59,0.00,,,0.00,WUHU216WMR968SP,2013-04-11 09:09:00,
2013-04-11 05:14:00,69.1,55.4,29.88,SSW,193,0.0,6.0,59,0.00,,,0.00,WUHU216WMR968SP,2013-04-11 09:14:00,
2013-04-11 05:19:00,68.9,55.4,29.88,SSE,162,0.0,5.4,59,0.00,,,0.00,WUHU216WMR968SP,2013-04-11 09:19:00,
2013-04-11 05:24:00,68.5,53.6,29.88,SW,224,3.3,5.4,60,0.00,,,0.00,WUHU216WMR968SP,2013-04-11 09:24:00,
2013-04-11 05:29:00,68.7,53.6,29.88,SSW,213,0.0,6.0,60,0.00,,,0.00,WUHU216WMR968SP,2013-04-11 09:29:00,
2013-04-11 05:34:00,68.7,53.6,29.88,WSW,243,0.0,6.0,60,0.00,,,0.00,WUHU216WMR968SP,2013-04-11 09:34:00,
2013-04-11 05:39:00,68.5,53.6,29.88,South,171,3.3,8.1,60,0.00,,,0.00,WUHU216WMR968SP,2013-04-11 09:39:00,
2013-04-11 05:44:00,68.4,53.6,29.88,South,169,4.1,8.1,61,0.00,,,0.00,WUHU216WMR968SP,2013-04-11 09:44:00,
2013-04-11 05:49:00,68.2,53.6,29.88,South,184,0.0,6.0,61,0.00,,,0.00,WUHU216WMR968SP,2013-04-11 09:49:00,
2013-04-11 05:54:00,68.0,55.4,29.88,SSE,160,3.3,4.6,62,0.00,,,0.00,WUHU216WMR968SP,2013-04-11 09:54:00,
2013-04-11 05:59:00,67.8,55.4,29.88,WSW,255,0.0,4.6,62,0.00,,,0.00,WUHU216WMR968SP,2013-04-11 09:59:00,
2013-04-11 06:04:00,67.6,55.4,29.88,SW,233,0.0,3.3,63,0.00,,,0.00,WUHU216WMR968SP,2013-04-11 10:04:00,
2013-04-11 06:09:00,67.5,55.4,29.88,SW,235,0.0,0.0,63,0.00,,,0.00,WUHU216WMR968SP,2013-04-11 10:09:00,
2013-04-11 06:14:00,67.3,55.4,29.88,SW,235,0.0,0.0,63,0.00,,,0.00,WUHU216WMR968SP,2013-04-11 10:14:00,
2013-04-11 06:19:00,66.9,53.6,29.88,SSE,162,0.0,4.1,64,0.00,,,0.00,WUHU216WMR968SP,2013-04-11 10:19:00,
2013-04-11 06:24:00,66.7,53.6,29.88,SSE,162,0.0,4.1,64,0.00,,,0.00,WUHU216WMR968SP,2013-04-11 10:24:00,
2013-04-11 06:29:00,66.6,53.6,29.88,South,189,0.0,0.0,65,0.00,,,0.00,WUHU216WMR968SP,2013-04-11 10:29:00,
2013-04-11 06:35:00,66.2,53.6,29.88,South,189,0.0,0.0,65,0.00,,,0.00,WUHU216WMR968SP,2013-04-11 10:35:00,
2013-04-11 06:40:00,65.8,55.4,29.91,South,189,0.0,0.0,66,0.00,,,0.00,WUHU216WMR968SP,2013-04-11 10:40:00,
2013-04-11 06:45:00,65.5,55.4,29.91,South,189,0.0,0.0,67,0.00,,,0.00,WUHU216WMR968SP,2013-04-11 10:45:00,
2013-04-11 06:50:00,64.9,53.6,29.91,South,189,0.0,0.0,68,0.00,,,0.00,WUHU216WMR968SP,2013-04-11 10:50:00,
2013-04-11 06:55:00,64.6,53.6,29.91,SSE,151,0.0,0.0,68,0.00,,,0.00,WUHU216WMR968SP,2013-04-11 10:55:00,
2013-04-11 07:00:00,64.2,53.6,29.91,SSE,151,0.0,0.0,69,0.00,,,0.00,WUHU216WMR968SP,2013-04-11 11:00:00,
2013-04-11 07:05:00,63.9,55.4,29.91,SE,140,0.0,0.0,70,0.00,,,0.00,WUHU216WMR968SP,2013-04-11 11:05:00,
2013-04-11 07:10:00,64.4,55.4,29.91,SSE,165,0.0,4.6,70,0.00,,,0.00,WUHU216WMR968SP,2013-04-11 11:10:00,
2013-04-11 07:15:00,64.2,55.4,29.91,SW,217,0.0,4.6,70,0.00,,,0.00,WUHU216WMR968SP,2013-04-11 11:15:00,
2013-04-11 07:20:00,63.9,55.4,29.91,SSE,153,0.0,0.0,71,0.00,,,0.00,WUHU216WMR968SP,2013-04-11 11:20:00,
2013-04-11 07:25:00,63.5,55.4,29.91,SE,136,0.0,0.0,71,0.00,,,0.00,WUHU216WMR968SP,2013-04-11 11:25:00,
2013-04-11 07:30:00,63.5,55.4,29.91,SSE,160,0.0,0.0,72,0.00,,,0.00,WUHU216WMR968SP,2013-04-11 11:30:00,
2013-04-11 07:35:00,64.0,55.4,29.91,SSW,211,3.3,6.0,72,0.00,,,0.00,WUHU216WMR968SP,2013-04-11 11:35:00,
2013-04-11 07:40:00,64.6,55.4,29.91,SE,142,0.0,6.0,71,0.00,,,0.00,WUHU216WMR968SP,2013-04-11 11:40:00,
2013-04-11 07:45:00,65.1,55.4,29.91,SE,143,4.1,5.4,71,0.00,,,0.00,WUHU216WMR968SP,2013-04-11 11:45:00,
2013-04-11 07:50:00,65.8,55.4,29.91,South,171,4.1,7.4,70,0.00,,,0.00,WUHU216WMR968SP,2013-04-11 11:50:00,
2013-04-11 07:55:00,66.0,55.4,29.91,SSW,198,0.0,7.4,70,0.00,,,0.00,WUHU216WMR968SP,2013-04-11 11:55:00,
2013-04-11 08:00:00,66.0,55.4,29.91,SSE,163,0.0,6.0,69,0.00,,,0.00,WUHU216WMR968SP,2013-04-11 12:00:00,
2013-04-11 08:05:00,66.2,55.4,29.91,SSE,161,0.0,6.0,69,0.00,,,0.00,WUHU216WMR968SP,2013-04-11 12:05:00,
2013-04-11 08:10:00,66.4,55.4,29.91,South,171,4.1,6.0,69,0.00,,,0.00,WUHU216WMR968SP,2013-04-11 12:10:00,
2013-04-11 08:15:00,66.6,55.4,29.91,South,191,0.0,5.4,68,0.00,,,0.00,WUHU216WMR968SP,2013-04-11 12:15:00,
2013-04-11 08:21:00,66.7,55.4,29.91,ESE,122,0.0,4.1,68,0.00,,,0.00,WUHU216WMR968SP,2013-04-11 12:21:00,
2013-04-11 08:26:00,66.9,55.4,29.91,SW,227,0.0,0.0,68,0.00,,,0.00,WUHU216WMR968SP,2013-04-11 12:26:00,
2013-04-11 08:31:00,67.1,57.2,29.91,SW,222,0.0,0.0,68,0.00,,,0.00,WUHU216WMR968SP,2013-04-11 12:31:00,
2013-04-11 08:36:00,67.3,57.2,29.88,SW,222,0.0,0.0,69,0.00,,,0.00,WUHU216WMR968SP,2013-04-11 12:36:00,
2013-04-11 08:41:00,67.6,57.2,29.88,SW,227,4.1,5.4,68,0.00,,,0.00,WUHU216WMR968SP,2013-04-11 12:41:00,
2013-04-11 08:46:00,67.8,57.2,29.88,WSW,251,0.0,5.4,68,0.00,,,0.00,WUHU216WMR968SP,2013-04-11 12:46:00,
2013-04-11 08:51:00,68.2,57.2,29.91,WSW,253,0.0,5.4,68,0.00,,,0.00,WUHU216WMR968SP,2013-04-11 12:51:00,
2013-04-11 08:56:00,68.5,57.2,29.91,SSW,193,0.0,6.0,67,0.00,,,0.00,WUHU216WMR968SP,2013-04-11 12:56:00,
2013-04-11 09:01:00,68.7,57.2,29.91,SW,230,0.0,4.1,67,0.00,,,0.00,WUHU216WMR968SP,2013-04-11 13:01:00,
2013-04-11 09:06:00,68.9,59.0,29.91,WNW,287,3.3,6.0,67,0.00,,,0.00,WUHU216WMR968SP,2013-04-11 13:06:00,
2013-04-11 09:11:00,69.1,57.2,29.91,SW,223,3.3,9.5,66,0.00,,,0.00,WUHU216WMR968SP,2013-04-11 13:11:00,
2013-04-11 09:17:00,69.4,57.2,29.91,WNW,300,0.0,9.5,66,0.00,,,0.00,WUHU216WMR968SP,2013-04-11 13:17:00,
2013-04-11 09:22:00,69.6,57.2,29.88,SE,124,0.0,6.0,65,0.00,,,0.00,WUHU216WMR968SP,2013-04-11 13:22:00,
2013-04-11 09:27:00,70.0,57.2,29.88,SW,216,0.0,6.0,65,0.00,,,0.00,WUHU216WMR968SP,2013-04-11 13:27:00,
2013-04-11 09:32:00,70.3,57.2,29.88,SSW,206,0.0,6.0,64,0.00,,,0.00,WUHU216WMR968SP,2013-04-11 13:32:00,
2013-04-11 09:37:00,70.7,59.0,29.91,WSW,238,4.6,8.7,64,0.00,,,0.00,WUHU216WMR968SP,2013-04-11 13:37:00,
2013-04-11 09:42:00,70.9,59.0,29.91,WSW,240,4.1,8.7,63,0.00,,,0.00,WUHU216WMR968SP,2013-04-11 13:42:00,
2013-04-11 09:47:00,71.6,57.2,29.91,SW,235,0.0,8.7,62,0.00,,,0.00,WUHU216WMR968SP,2013-04-11 13:47:00,
2013-04-11 09:52:00,71.8,57.2,29.88,West,266,0.0,8.1,62,0.00,,,0.00,WUHU216WMR968SP,2013-04-11 13:52:00,
2013-04-11 09:57:00,72.1,57.2,29.88,SSW,212,6.0,9.5,61,0.00,,,0.00,WUHU216WMR968SP,2013-04-11 13:57:00,
2013-04-11 10:02:00,72.1,57.2,29.88,SW,236,4.6,11.4,61,0.00,,,0.00,WUHU216WMR968SP,2013-04-11 14:02:00,
2013-04-11 10:07:00,72.1,57.2,29.88,SW,235,6.0,12.2,61,0.00,,,0.00,WUHU216WMR968SP,2013-04-11 14:07:00,
2013-04-11 10:12:00,72.9,59.0,29.88,South,180,3.3,12.2,60,0.00,,,0.00,WUHU216WMR968SP,2013-04-11 14:12:00,
2013-04-11 10:17:00,74.1,59.0,29.88,WSW,246,0.0,8.7,59,0.00,,,0.00,WUHU216WMR968SP,2013-04-11 14:17:00,
2013-04-11 10:22:00,74.5,59.0,29.88,SW,236,4.6,11.4,57,0.00,,,0.00,WUHU216WMR968SP,2013-04-11 14:22:00,
2013-04-11 10:27:00,73.9,57.2,29.88,SSW,195,6.8,11.4,56,0.00,,,0.00,WUHU216WMR968SP,2013-04-11 14:27:00,
2013-04-11 10:33:00,73.9,57.2,29.88,West,280,8.1,11.4,56,0.00,,,0.00,WUHU216WMR968SP,2013-04-11 14:33:00,
2013-04-11 10:38:00,74.5,59.0,29.88,SSE,168,4.1,11.4,56,0.00,,,0.00,WUHU216WMR968SP,2013-04-11 14:38:00,
2013-04-11 10:43:00,74.5,57.2,29.88,West,265,4.6,13.0,55,0.00,,,0.00,WUHU216WMR968SP,2013-04-11 14:43:00,
2013-04-11 10:48:00,74.3,57.2,29.88,SSW,201,8.7,14.4,55,0.00,,,0.00,WUHU216WMR968SP,2013-04-11 14:48:00,
2013-04-11 10:53:00,74.1,57.2,29.88,South,180,4.1,14.4,55,0.00,,,0.00,WUHU216WMR968SP,2013-04-11 14:53:00,
2013-04-11 10:58:00,73.9,57.2,29.88,SW,217,6.0,8.7,55,0.00,,,0.00,WUHU216WMR968SP,2013-04-11 14:58:00,
2013-04-11 11:03:00,74.1,57.2,29.88,WNW,283,3.3,10.8,55,0.00,,,0.00,WUHU216WMR968SP,2013-04-11 15:03:00,
2013-04-11 11:08:00,75.4,57.2,29.88,NNE,13,6.0,10.8,53,0.00,,,0.00,WUHU216WMR968SP,2013-04-11 15:08:00,
2013-04-11 11:13:00,76.1,59.0,29.88,North,357,6.8,9.5,52,0.00,,,0.00,WUHU216WMR968SP,2013-04-11 15:13:00,
2013-04-11 11:18:00,76.3,59.0,29.88,South,184,6.8,11.4,52,0.00,,,0.00,WUHU216WMR968SP,2013-04-11 15:18:00,
2013-04-11 11:23:00,75.9,55.4,29.88,WSW,247,6.8,12.2,50,0.00,,,0.00,WUHU216WMR968SP,2013-04-11 15:23:00,
2013-04-11 11:28:00,77.2,57.2,29.88,WSW,246,4.6,12.2,51,0.00,,,0.00,WUHU216WMR968SP,2013-04-11 15:28:00,
2013-04-11 11:33:00,77.9,57.2,29.88,South,169,6.0,9.5,49,0.00,,,0.00,WUHU216WMR968SP,2013-04-11 15:33:00,
2013-04-11 11:38:00,78.8,57.2,29.88,WSW,240,6.8,9.5,48,0.00,,,0.00,WUHU216WMR968SP,2013-04-11 15:38:00,
2013-04-11 11:43:00,78.3,57.2,29.88,SSE,150,6.0,12.2,47,0.00,,,0.00,WUHU216WMR968SP,2013-04-11 15:43:00,
2013-04-11 11:48:00,77.7,55.4,29.88,WSW,239,6.8,16.5,46,0.00,,,0.00,WUHU216WMR968SP,2013-04-11 15:48:00,
2013-04-11 11:53:00,77.9,57.2,29.88,WSW,241,7.4,16.5,46,0.00,,,0.00,WUHU216WMR968SP,2013-04-11 15:53:00,
2013-04-11 11:58:00,78.1,55.4,29.88,SW,230,11.4,15.2,44,0.00,,,0.00,WUHU216WMR968SP,2013-04-11 15:58:00,
2013-04-11 12:03:00,78.1,55.4,29.88,SSW,196,10.0,15.2,43,0.00,,,0.00,WUHU216WMR968SP,2013-04-11 16:03:00,
2013-04-11 12:08:00,78.3,55.4,29.88,SSE,156,8.7,15.2,44,0.00,,,0.00,WUHU216WMR968SP,2013-04-11 16:08:00,
2013-04-11 12:14:00,78.4,55.4,29.88,SW,220,7.4,15.8,44,0.00,,,0.00,WUHU216WMR968SP,2013-04-11 16:14:00,
2013-04-11 12:19:00,78.3,55.4,29.88,SE,132,6.8,15.8,44,0.00,,,0.00,WUHU216WMR968SP,2013-04-11 16:19:00,
2013-04-11 12:24:00,78.6,55.4,29.85,WSW,254,8.7,16.5,44,0.00,,,0.00,WUHU216WMR968SP,2013-04-11 16:24:00,
2013-04-11 12:29:00,79.2,55.4,29.85,NE,56,4.1,16.5,44,0.00,,,0.00,WUHU216WMR968SP,2013-04-11 16:29:00,
2013-04-11 12:34:00,78.8,55.4,29.85,WSW,245,10.0,15.8,43,0.00,,,0.00,WUHU216WMR968SP,2013-04-11 16:34:00,
2013-04-11 12:39:00,79.0,55.4,29.85,SSE,149,6.8,15.8,43,0.00,,,0.00,WUHU216WMR968SP,2013-04-11 16:39:00,
2013-04-11 12:44:00,79.5,55.4,29.85,West,271,8.7,16.5,43,0.00,,,0.00,WUHU216WMR968SP,2013-04-11 16:44:00,
2013-04-11 12:49:00,80.1,55.4,29.85,WSW,239,7.4,18.5,43,0.00,,,0.00,WUHU216WMR968SP,2013-04-11 16:49:00,
2013-04-11 12:54:00,79.3,53.6,29.85,SSW,192,11.4,18.5,42,0.00,,,0.00,WUHU216WMR968SP,2013-04-11 16:54:00,
2013-04-11 12:59:00,79.7,55.4,29.85,WSW,239,4.6,18.5,43,0.00,,,0.00,WUHU216WMR968SP,2013-04-11 16:59:00,
2013-04-11 13:04:00,80.2,55.4,29.85,SW,227,5.4,17.1,42,0.00,,,0.00,WUHU216WMR968SP,2013-04-11 17:04:00,
2013-04-11 13:09:00,80.1,55.4,29.85,South,179,9.5,17.1,42,0.00,,,0.00,WUHU216WMR968SP,2013-04-11 17:09:00,
2013-04-11 13:14:00,79.7,55.4,29.85,WSW,240,6.0,15.8,43,0.00,,,0.00,WUHU216WMR968SP,2013-04-11 17:14:00,
2013-04-11 13:19:00,80.2,57.2,29.85,SSW,197,7.4,12.2,44,0.00,,,0.00,WUHU216WMR968SP,2013-04-11 17:19:00,
2013-04-11 13:24:00,79.7,55.4,29.82,WSW,245,6.0,14.4,43,0.00,,,0.00,WUHU216WMR968SP,2013-04-11 17:24:00,
2013-04-11 13:29:00,80.6,55.4,29.82,ESE,106,5.4,13.0,43,0.00,,,0.00,WUHU216WMR968SP,2013-04-11 17:29:00,
2013-04-11 13:34:00,80.8,55.4,29.82,SSE,167,6.0,13.0,42,0.00,,,0.00,WUHU216WMR968SP,2013-04-11 17:34:00,
2013-04-11 13:39:00,82.0,57.2,29.82,South,186,9.5,13.0,42,0.00,,,0.00,WUHU216WMR968SP,2013-04-11 17:39:00,
2013-04-11 13:44:00,81.7,57.2,29.82,SW,232,10.8,15.2,41,0.00,,,0.00,WUHU216WMR968SP,2013-04-11 17:44:00,
2013-04-11 13:49:00,81.5,57.2,29.82,SSE,162,10.8,18.5,41,0.00,,,0.00,WUHU216WMR968SP,2013-04-11 17:49:00,
2013-04-11 13:54:00,80.2,55.4,29.82,South,177,4.1,19.2,43,0.00,,,0.00,WUHU216WMR968SP,2013-04-11 17:54:00,
2013-04-11 13:59:00,81.0,55.4,29.82,WNW,302,6.8,19.2,43,0.00,,,0.00,WUHU216WMR968SP,2013-04-11 17:59:00,
2013-04-11 14:05:00,80.1,55.4,29.82,SSW,192,5.4,12.5,43,0.00,,,0.00,WUHU216WMR968SP,2013-04-11 18:05:00,
2013-04-11 14:10:00,79.7,57.2,29.79,NE,54,6.0,12.5,44,0.00,,,0.00,WUHU216WMR968SP,2013-04-11 18:10:00,
2013-04-11 14:15:00,78.8,55.4,29.79,SW,229,8.7,12.2,44,0.00,,,0.00,WUHU216WMR968SP,2013-04-11 18:15:00,
2013-04-11 14:20:00,78.4,55.4,29.79,SSW,212,4.6,11.4,45,0.00,,,0.00,WUHU216WMR968SP,2013-04-11 18:20:00,
2013-04-11 14:25:00,78.3,55.4,29.79,SE,130,7.4,18.5,45,0.00,,,0.00,WUHU216WMR968SP,2013-04-11 18:25:00,
2013-04-11 14:30:00,78.8,55.4,29.79,South,187,8.1,18.5,45,0.00,,,0.00,WUHU216WMR968SP,2013-04-11 18:30:00,
2013-04-11 14:35:00,79.3,55.4,29.79,SW,218,8.1,13.0,45,0.00,,,0.00,WUHU216WMR968SP,2013-04-11 18:35:00,
2013-04-11 14:40:00,79.2,55.4,29.79,West,266,4.6,13.0,45,0.00,,,0.00,WUHU216WMR968SP,2013-04-11 18:40:00,
2013-04-11 14:45:00,79.0,55.4,29.79,West,259,7.4,12.5,45,0.00,,,0.00,WUHU216WMR968SP,2013-04-11 18:45:00,
2013-04-11 14:50:00,78.6,57.2,29.79,NE,44,6.0,12.5,46,0.00,,,0.00,WUHU216WMR968SP,2013-04-11 18:50:00,
2013-04-11 14:55:00,78.8,57.2,29.77,SSW,206,8.7,15.8,46,0.00,,,0.00,WUHU216WMR968SP,2013-04-11 18:55:00,
2013-04-11 15:00:00,79.2,57.2,29.77,SSE,158,6.0,15.8,46,0.00,,,0.00,WUHU216WMR968SP,2013-04-11 19:00:00,
2013-04-11 15:05:00,79.5,57.2,29.77,WSW,238,4.6,11.4,46,0.00,,,0.00,WUHU216WMR968SP,2013-04-11 19:05:00,
2013-04-11 15:10:00,79.9,57.2,29.77,WSW,252,8.7,12.2,45,0.00,,,0.00,WUHU216WMR968SP,2013-04-11 19:10:00,
2013-04-11 15:15:00,79.5,55.4,29.77,SE,144,8.1,16.5,45,0.00,,,0.00,WUHU216WMR968SP,2013-04-11 19:15:00,
2013-04-11 15:20:00,79.2,57.2,29.77,WSW,253,6.0,16.5,46,0.00,,,0.00,WUHU216WMR968SP,2013-04-11 19:20:00,
2013-04-11 15:25:00,79.2,55.4,29.77,SW,230,9.5,15.8,45,0.00,,,0.00,WUHU216WMR968SP,2013-04-11 19:25:00,
2013-04-11 15:30:00,80.2,57.2,29.77,SW,231,9.5,15.2,46,0.00,,,0.00,WUHU216WMR968SP,2013-04-11 19:30:00,
2013-04-11 15:35:00,81.5,59.0,29.77,ESE,113,6.0,15.2,44,0.00,,,0.00,WUHU216WMR968SP,2013-04-11 19:35:00,
2013-04-11 15:40:00,81.5,57.2,29.74,SW,215,6.8,15.2,43,0.00,,,0.00,WUHU216WMR968SP,2013-04-11 19:40:00,
2013-04-11 15:45:00,82.0,59.0,29.74,South,185,5.4,11.4,44,0.00,,,0.00,WUHU216WMR968SP,2013-04-11 19:45:00,
2013-04-11 15:50:00,82.0,57.2,29.74,SSW,196,4.6,11.4,43,0.00,,,0.00,WUHU216WMR968SP,2013-04-11 19:50:00,
2013-04-11 15:55:00,82.0,57.2,29.74,SSE,147,6.8,13.0,42,0.00,,,0.00,WUHU216WMR968SP,2013-04-11 19:55:00,
2013-04-11 16:00:00,81.7,57.2,29.74,WSW,253,6.8,13.0,42,0.00,,,0.00,WUHU216WMR968SP,2013-04-11 20:00:00,
2013-04-11 16:05:00,81.7,57.2,29.71,SSE,163,5.4,13.0,43,0.00,,,0.00,WUHU216WMR968SP,2013-04-11 20:05:00,
2013-04-11 16:10:00,81.7,57.2,29.71,SSE,163,7.4,12.5,42,0.00,,,0.00,WUHU216WMR968SP,2013-04-11 20:10:00,
2013-04-11 16:15:00,81.5,57.2,29.71,SW,236,4.1,15.8,43,0.00,,,0.00,WUHU216WMR968SP,2013-04-11 20:15:00,
2013-04-11 16:20:00,81.1,55.4,29.71,WSW,254,4.1,15.8,43,0.00,,,0.00,WUHU216WMR968SP,2013-04-11 20:20:00,
2013-04-11 16:25:00,81.1,55.4,29.71,South,171,6.0,11.4,43,0.00,,,0.00,WUHU216WMR968SP,2013-04-11 20:25:00,
2013-04-11 16:30:00,80.8,55.4,29.71,SE,146,6.0,12.5,43,0.00,,,0.00,WUHU216WMR968SP,2013-04-11 20:30:00,
2013-04-11 16:35:00,80.6,55.4,29.71,SW,220,4.1,12.5,43,0.00,,,0.00,WUHU216WMR968SP,2013-04-11 20:35:00,
2013-04-11 16:40:00,80.4,55.4,29.71,SW,219,8.1,15.2,43,0.00,,,0.00,WUHU216WMR968SP,2013-04-11 20:40:00,
2013-04-11 16:45:00,80.4,57.2,29.71,ESE,118,5.4,15.2,44,0.00,,,0.00,WUHU216WMR968SP,2013-04-11 20:45:00,
2013-04-11 16:50:00,80.2,57.2,29.71,South,185,5.4,8.7,44,0.00,,,0.00,WUHU216WMR968SP,2013-04-11 20:50:00,
2013-04-11 16:55:00,80.1,57.2,29.71,West,263,0.0,8.7,44,0.00,,,0.00,WUHU216WMR968SP,2013-04-11 20:55:00,
2013-04-11 17:00:00,80.1,57.2,29.71,WNW,299,3.3,11.4,44,0.00,,,0.00,WUHU216WMR968SP,2013-04-11 21:00:00,
2013-04-11 17:05:00,79.9,57.2,29.71,WSW,243,6.8,11.4,44,0.00,,,0.00,WUHU216WMR968SP,2013-04-11 21:05:00,
2013-04-11 17:10:00,79.7,57.2,29.71,West,266,4.1,12.5,44,0.00,,,0.00,WUHU216WMR968SP,2013-04-11 21:10:00,
2013-04-11 17:15:00,79.9,57.2,29.71,SE,135,7.4,17.8,44,0.00,,,0.00,WUHU216WMR968SP,2013-04-11 21:15:00,
2013-04-11 17:20:00,79.7,57.2,29.68,SSE,166,8.7,17.8,45,0.00,,,0.00,WUHU216WMR968SP,2013-04-11 21:20:00,
2013-04-11 17:25:00,79.7,57.2,29.68,ESE,119,4.6,17.8,46,0.00,,,0.00,WUHU216WMR968SP,2013-04-11 21:25:00,
2013-04-11 17:30:00,79.5,57.2,29.68,WNW,284,4.6,19.2,46,0.00,,,0.00,WUHU216WMR968SP,2013-04-11 21:30:00,
2013-04-11 17:35:00,79.0,57.2,29.71,WNW,286,10.0,19.2,47,0.00,,,0.00,WUHU216WMR968SP,2013-04-11 21:35:00,
2013-04-11 17:40:00,78.6,57.2,29.71,SW,236,4.6,15.8,48,0.00,,,0.00,WUHU216WMR968SP,2013-04-11 21:40:00,
2013-04-11 17:46:00,78.3,57.2,29.71,South,172,5.4,12.2,49,0.00,,,0.00,WUHU216WMR968SP,2013-04-11 21:46:00,
2013-04-11 17:51:00,78.1,59.0,29.68,SSW,209,8.1,12.2,50,0.00,,,0.00,WUHU216WMR968SP,2013-04-11 21:51:00,
2013-04-11 17:56:00,77.7,57.2,29.68,South,184,0.0,11.4,51,0.00,,,0.00,WUHU216WMR968SP,2013-04-11 21:56:00,
2013-04-11 18:01:00,77.5,57.2,29.68,SSW,209,7.4,11.4,51,0.00,,,0.00,WUHU216WMR968SP,2013-04-11 22:01:00,
2013-04-11 18:06:00,77.4,59.0,29.68,SW,226,4.6,12.2,52,0.00,,,0.00,WUHU216WMR968SP,2013-04-11 22:06:00,
2013-04-11 18:12:00,77.2,59.0,29.68,WNW,289,4.1,13.0,52,0.00,,,0.00,WUHU216WMR968SP,2013-04-11 22:12:00,
2013-04-11 18:17:00,77.0,59.0,29.68,West,279,5.4,13.0,53,0.00,,,0.00,WUHU216WMR968SP,2013-04-11 22:17:00,
2013-04-11 18:22:00,77.0,59.0,29.68,SSW,204,7.4,12.2,53,0.00,,,0.00,WUHU216WMR968SP,2013-04-11 22:22:00,
2013-04-11 18:27:00,76.8,59.0,29.68,SW,217,0.0,12.2,54,0.00,,,0.00,WUHU216WMR968SP,2013-04-11 22:27:00,
2013-04-11 18:32:00,76.5,59.0,29.68,SE,136,4.6,10.0,55,0.00,,,0.00,WUHU216WMR968SP,2013-04-11 22:32:00,
2013-04-11 18:37:00,75.7,60.8,29.68,SSW,204,4.1,12.2,59,0.00,,,0.00,WUHU216WMR968SP,2013-04-11 22:37:00,
2013-04-11 18:42:00,73.2,60.8,29.68,SW,218,0.0,14.4,65,0.00,,,0.00,WUHU216WMR968SP,2013-04-11 22:42:00,
2013-04-11 18:47:00,72.0,60.8,29.68,SE,130,0.0,14.4,69,0.00,,,0.00,WUHU216WMR968SP,2013-04-11 22:47:00,
2013-04-11 18:52:00,71.2,62.6,29.68,SW,223,0.0,8.1,72,0.00,,,0.00,WUHU216WMR968SP,2013-04-11 22:52:00,
2013-04-11 18:57:00,70.7,62.6,29.68,SW,223,0.0,8.1,74,0.00,,,0.00,WUHU216WMR968SP,2013-04-11 22:57:00,
2013-04-11 19:03:00,70.0,62.6,29.68,SW,223,0.0,0.0,77,0.00,,,0.00,WUHU216WMR968SP,2013-04-11 23:03:00,
2013-04-11 19:08:00,69.4,62.6,29.68,SW,223,0.0,0.0,80,0.04,,,0.04,WUHU216WMR968SP,2013-04-11 23:08:00,
2013-04-11 19:13:00,68.7,62.6,29.68,ESE,104,0.0,0.0,82,0.04,,,0.04,WUHU216WMR968SP,2013-04-11 23:13:00,
2013-04-11 19:18:00,68.5,62.6,29.68,ESE,104,0.0,0.0,84,0.04,,,0.04,WUHU216WMR968SP,2013-04-11 23:18:00,
2013-04-11 19:24:00,68.2,64.4,29.68,ESE,104,0.0,0.0,86,0.04,,,0.04,WUHU216WMR968SP,2013-04-11 23:24:00,
2013-04-11 19:29:00,68.2,64.4,29.68,ESE,113,0.0,0.0,89,0.04,,,0.04,WUHU216WMR968SP,2013-04-11 23:29:00,
2013-04-11 19:34:00,68.0,64.4,29.68,ESE,113,0.0,0.0,89,0.04,,,0.04,WUHU216WMR968SP,2013-04-11 23:34:00,
2013-04-11 19:39:00,67.8,64.4,29.71,SSE,155,0.0,0.0,90,0.09,,,0.09,WUHU216WMR968SP,2013-04-11 23:39:00,
2013-04-11 19:45:00,67.6,64.4,29.71,SW,231,0.0,0.0,91,0.13,,,0.13,WUHU216WMR968SP,2013-04-11 23:45:00,
2013-04-11 19:50:00,67.5,64.4,29.71,SSE,167,7.4,15.2,91,0.25,,,0.25,WUHU216WMR968SP,2013-04-11 23:50:00,
2013-04-11 19:55:00,66.2,64.4,29.77,SSE,148,6.0,15.2,91,0.52,,,0.52,WUHU216WMR968SP,2013-04-11 23:55:00,
2013-04-11 20:00:00,65.8,62.6,29.77,NNE,22,8.1,15.8,90,0.56,,,0.56,WUHU216WMR968SP,2013-04-12 00:00:00,
2013-04-11 20:05:00,65.5,64.4,29.77,SW,221,3.3,15.8,91,0.56,,,0.61,WUHU216WMR968SP,2013-04-12 00:05:00,
2013-04-11 20:10:00,65.1,62.6,29.71,West,261,0.0,8.7,91,0.60,,,0.65,WUHU216WMR968SP,2013-04-12 00:10:00,
2013-04-11 20:15:00,64.8,62.6,29.71,NW,320,4.1,8.1,91,0.60,,,0.65,WUHU216WMR968SP,2013-04-12 00:15:00,
2013-04-11 20:20:00,64.6,62.6,29.71,SW,218,3.3,8.1,91,0.60,,,0.65,WUHU216WMR968SP,2013-04-12 00:20:00,
2013-04-11 20:25:00,64.4,62.6,29.71,West,280,0.0,7.4,91,0.65,,,0.69,WUHU216WMR968SP,2013-04-12 00:25:00,
2013-04-11 20:30:00,64.0,62.6,29.71,SSW,199,0.0,8.7,91,0.65,,,0.69,WUHU216WMR968SP,2013-04-12 00:30:00,
2013-04-11 20:35:00,63.7,62.6,29.74,SSW,199,0.0,8.7,91,0.65,,,0.69,WUHU216WMR968SP,2013-04-12 00:35:00,
2013-04-11 20:40:00,63.3,60.8,29.74,NW,311,0.0,0.0,91,0.61,,,0.69,WUHU216WMR968SP,2013-04-12 00:40:00,
2013-04-11 20:45:00,62.8,60.8,29.74,NW,322,0.0,0.0,91,0.60,,,0.74,WUHU216WMR968SP,2013-04-12 00:45:00,
2013-04-11 20:50:00,62.2,60.8,29.71,NW,322,0.0,0.0,91,0.44,,,0.78,WUHU216WMR968SP,2013-04-12 00:50:00,
2013-04-11 20:55:00,61.9,60.8,29.71,West,263,0.0,0.0,92,0.31,,,0.83,WUHU216WMR968SP,2013-04-12 00:55:00,
2013-04-11 21:00:00,61.7,60.8,29.71,East,92,0.0,5.4,93,0.30,,,0.86,WUHU216WMR968SP,2013-04-12 01:00:00,
2013-04-11 21:05:00,61.5,59.0,29.71,East,83,0.0,5.4,93,0.30,,,0.90,WUHU216WMR968SP,2013-04-12 01:05:00,
2013-04-11 21:10:00,61.3,59.0,29.74,East,83,0.0,4.6,94,0.25,,,0.90,WUHU216WMR968SP,2013-04-12 01:10:00,
2013-04-11 21:15:00,61.3,59.0,29.74,East,98,0.0,0.0,94,0.30,,,0.95,WUHU216WMR968SP,2013-04-12 01:15:00,
2013-04-11 21:20:00,61.2,59.0,29.74,East,98,0.0,0.0,95,0.30,,,0.95,WUHU216WMR968SP,2013-04-12 01:20:00,
2013-04-11 21:25:00,61.0,59.0,29.74,East,99,0.0,0.0,95,0.30,,,0.99,WUHU216WMR968SP,2013-04-12 01:25:00,
2013-04-11 21:30:00,61.0,59.0,29.74,East,99,0.0,0.0,96,0.39,,,1.08,WUHU216WMR968SP,2013-04-12 01:30:00,
2013-04-11 21:35:00,61.0,59.0,29.71,East,99,0.0,0.0,96,0.39,,,1.08,WUHU216WMR968SP,2013-04-12 01:35:00,
2013-04-11 21:40:00,61.0,59.0,29.71,East,99,0.0,0.0,96,0.34,,,1.08,WUHU216WMR968SP,2013-04-12 01:40:00,
2013-04-11 21:45:00,60.8,59.0,29.71,SE,127,0.0,0.0,96,0.39,,,1.12,WUHU216WMR968SP,2013-04-12 01:45:00,
2013-04-11 21:50:00,60.8,60.8,29.71,ENE,73,0.0,4.1,97,0.34,,,1.12,WUHU216WMR968SP,2013-04-12 01:50:00,
2013-04-11 21:55:00,60.8,60.8,29.71,ENE,78,3.3,6.0,98,0.34,,,1.17,WUHU216WMR968SP,2013-04-12 01:55:00,
2013-04-11 22:00:00,60.8,60.8,29.71,East,92,4.6,7.4,98,0.31,,,1.17,WUHU216WMR968SP,2013-04-12 02:00:00,
2013-04-11 22:05:00,60.8,60.8,29.71,ESE,109,4.1,8.1,98,0.26,,,1.17,WUHU216WMR968SP,2013-04-12 02:05:00,
2013-04-11 22:10:00,61.0,60.8,29.71,South,191,0.0,8.1,98,0.31,,,1.21,WUHU216WMR968SP,2013-04-12 02:10:00,
2013-04-11 22:15:00,61.0,60.8,29.71,East,84,0.0,8.1,98,0.26,,,1.21,WUHU216WMR968SP,2013-04-12 02:15:00,
2013-04-11 22:20:00,61.0,60.8,29.71,SSE,153,0.0,8.1,98,0.26,,,1.21,WUHU216WMR968SP,2013-04-12 02:20:00,
2013-04-11 22:25:00,61.2,60.8,29.71,SE,128,0.0,6.0,98,0.26,,,1.25,WUHU216WMR968SP,2013-04-12 02:25:00,
2013-04-11 22:30:00,61.2,60.8,29.71,SE,128,0.0,3.3,98,0.18,,,1.25,WUHU216WMR968SP,2013-04-12 02:30:00,
2013-04-11 22:35:00,61.2,60.8,29.74,SE,128,0.0,0.0,98,0.18,,,1.25,WUHU216WMR968SP,2013-04-12 02:35:00,
2013-04-11 22:40:00,61.2,60.8,29.74,SE,128,0.0,0.0,98,0.22,,,1.30,WUHU216WMR968SP,2013-04-12 02:40:00,
2013-04-11 22:45:00,61.2,60.8,29.74,SE,129,0.0,0.0,98,0.18,,,1.30,WUHU216WMR968SP,2013-04-12 02:45:00,
2013-04-11 22:50:00,61.2,60.8,29.71,ESE,119,0.0,0.0,98,0.18,,,1.30,WUHU216WMR968SP,2013-04-12 02:50:00,
2013-04-11 22:55:00,61.3,60.8,29.71,ESE,105,3.3,6.0,98,0.13,,,1.30,WUHU216WMR968SP,2013-04-12 02:55:00,
2013-04-11 23:00:00,61.3,60.8,29.71,East,90,4.6,6.0,98,0.13,,,1.30,WUHU216WMR968SP,2013-04-12 03:00:00,
2013-04-11 23:05:00,61.3,60.8,29.68,ESE,103,8.1,10.0,98,0.13,,,1.34,WUHU216WMR968SP,2013-04-12 03:05:00,
2013-04-11 23:10:00,61.5,60.8,29.68,East,80,6.8,10.0,98,0.13,,,1.34,WUHU216WMR968SP,2013-04-12 03:10:00,
2013-04-11 23:15:00,61.7,62.6,29.68,SE,145,6.0,13.0,98,0.13,,,1.34,WUHU216WMR968SP,2013-04-12 03:15:00,
2013-04-11 23:20:00,61.7,62.6,29.68,SE,140,4.6,13.0,98,0.13,,,1.34,WUHU216WMR968SP,2013-04-12 03:20:00,
2013-04-11 23:25:00,62.1,62.6,29.68,ESE,103,0.0,12.5,98,0.09,,,1.34,WUHU216WMR968SP,2013-04-12 03:25:00,
2013-04-11 23:30:00,62.1,62.6,29.68,South,169,4.1,12.5,98,0.09,,,1.34,WUHU216WMR968SP,2013-04-12 03:30:00,
2013-04-11 23:35:00,62.2,62.6,29.68,SE,129,0.0,9.5,98,0.09,,,1.34,WUHU216WMR968SP,2013-04-12 03:35:00,
2013-04-11 23:40:00,62.2,62.6,29.68,SE,135,3.3,8.1,98,0.04,,,1.34,WUHU216WMR968SP,2013-04-12 03:40:00,
2013-04-11 23:45:00,62.6,62.6,29.68,ESE,105,6.8,9.5,98,0.04,,,1.34,WUHU216WMR968SP,2013-04-12 03:45:00,
2013-04-11 23:50:00,62.8,62.6,29.65,SE,139,6.0,9.5,98,0.04,,,1.34,WUHU216WMR968SP,2013-04-12 03:50:00,
2013-04-11 23:55:00,62.8,62.6,29.65,ENE,74,11.4,16.5,98,0.04,,,1.34,WUHU216WMR968SP,2013-04-12 03:55:00,